Tracking 25372 objects as of 24-Jan-2022
HD Live streaming from Space Station
objects crossing your sky now

ORBCOMM FM 34

Track ORBCOMM FM 34 now!
10-day predictions
ORBCOMM FM 34 is classified as:


NORAD ID: 25986
Int'l Code: 1999-065G
Perigee: 786.5 km
Apogee: 790.6 km
Inclination: 45.0 °
Period: 100.5 minutes
Semi major axis: 7159 km
RCS: 0.5409 m2 (medium)
Launch date: December 4, 1999
Source: ORBCOMM (ORB)
Launch site: AIR FORCE EASTERN TEST RANGE (AFETR)
aabbcc
Your satellite tracking list
Your tracking list is empty




NASA's NSSDC Master Catalog

Two Line Element Set (TLE):
1 25986U 99065G   22024.52850376  .00000190  00000-0  11950-3 0  9994
2 25986  45.0390 177.8421 0002888 259.6774 100.3747 14.33093008156880
Source of the keplerian elements: AFSPC